N78AL HECA-LTBA

Flight info

Callsign N78AL
Flight time 1h 46m
Altitude 38000
Route CVO A16 RASDA M855 TOMBI UM855 SISPI
Aircraft B77W/H-SDE1E2E3FGHIJ2J3J4J5M1RWXY/LB1D1

Departure

Time 2026-04-25 15:12
Airport Cairo International Airport (HECA)

Arrival

Time 2026-04-25 16:58
Airport İstanbul Atatürk Airport (LTBA)
Time Latitude Longitude Altitude Speed Heading
2026-04-25 14:55 30.10936 31.40087 395 ft 0 kts 287°
2026-04-25 14:56 30.10935 31.40091 395 ft 2 kts 287°
2026-04-25 14:56 30.10931 31.40107 395 ft 2 kts 287°
2026-04-25 14:56 30.10926 31.40124 395 ft 2 kts 287°
2026-04-25 14:57 30.10922 31.40141 395 ft 2 kts 287°
2026-04-25 14:57 30.10919 31.40151 395 ft 2 kts 286°
2026-04-25 14:57 30.10916 31.40168 395 ft 2 kts 272°
2026-04-25 14:57 30.10917 31.40185 395 ft 2 kts 259°
2026-04-25 14:58 30.10920 31.40201 395 ft 2 kts 248°
2026-04-25 14:58 30.10927 31.40217 395 ft 2 kts 235°
2026-04-25 14:58 30.10933 31.40226 395 ft 0 kts 227°
2026-04-25 14:58 30.10934 31.40227 395 ft 0 kts 227°
2026-04-25 15:00 30.10908 31.40196 395 ft 6 kts 225°
2026-04-25 15:00 30.10883 31.40168 395 ft 6 kts 223°
2026-04-25 15:01 30.10821 31.40123 395 ft 11 kts 209°
2026-04-25 15:01 30.10755 31.40065 395 ft 11 kts 223°
2026-04-25 15:01 30.10689 31.39985 395 ft 20 kts 229°
2026-04-25 15:01 30.10575 31.39867 395 ft 23 kts 190°
2026-04-25 15:02 30.10528 31.39868 395 ft 1 kts 169°
2026-04-25 15:02 30.10499 31.39897 395 ft 12 kts 111°
2026-04-25 15:02 30.10560 31.40058 395 ft 29 kts 50°
2026-04-25 15:02 30.10685 31.40225 395 ft 25 kts 57°
2026-04-25 15:03 30.10692 31.40332 395 ft 8 kts 90°
2026-04-25 15:03 30.10714 31.40396 396 ft 12 kts 59°
2026-04-25 15:03 30.10806 31.40538 396 ft 31 kts 50°
2026-04-25 15:03 30.10940 31.40714 396 ft 25 kts 53°
2026-04-25 15:04 30.11054 31.40809 396 ft 16 kts 325°
2026-04-25 15:04 30.11066 31.40739 396 ft 6 kts 240°
2026-04-25 15:04 30.10984 31.40621 396 ft 31 kts 230°
2026-04-25 15:04 30.10844 31.40437 396 ft 28 kts 229°
2026-04-25 15:05 30.10702 31.40322 396 ft 23 kts 165°
2026-04-25 15:05 30.10620 31.40289 396 ft 15 kts 224°
2026-04-25 15:05 30.10519 31.40161 395 ft 23 kts 226°
2026-04-25 15:06 30.10306 31.40244 396 ft 29 kts 139°
2026-04-25 15:06 30.10088 31.40463 396 ft 46 kts 139°
2026-04-25 15:06 30.09880 31.40659 397 ft 31 kts 139°
2026-04-25 15:06 30.09790 31.40826 397 ft 22 kts 88°
2026-04-25 15:07 30.09818 31.41036 397 ft 29 kts 78°
2026-04-25 15:07 30.09870 31.41302 397 ft 37 kts 79°
2026-04-25 15:07 30.09915 31.41604 398 ft 33 kts 80°
2026-04-25 15:07 30.09897 31.41787 398 ft 10 kts 97°
2026-04-25 15:08 30.09949 31.41907 398 ft 22 kts 50°
2026-04-25 15:08 30.10073 31.42075 398 ft 32 kts 49°
2026-04-25 15:08 30.10244 31.42297 398 ft 42 kts 49°
2026-04-25 15:08 30.10456 31.42585 398 ft 51 kts 50°
2026-04-25 15:09 30.10707 31.42921 398 ft 59 kts 49°
2026-04-25 15:09 30.10996 31.43303 399 ft 67 kts 50°
2026-04-25 15:09 30.11621 31.44122 399 ft 56 kts 50°
2026-04-25 15:10 30.11859 31.44453 399 ft 52 kts 50°
2026-04-25 15:10 30.12084 31.44751 399 ft 46 kts 49°
2026-04-25 15:10 30.12142 31.44955 399 ft 8 kts 125°
2026-04-25 15:11 30.12100 31.44991 399 ft 8 kts 163°
2026-04-25 15:11 30.12048 31.44985 399 ft 6 kts 207°
2026-04-25 15:11 30.12008 31.44948 399 ft 8 kts 224°
2026-04-25 15:12 30.11381 31.44124 399 ft 143 kts 229°
2026-04-25 15:12 30.10593 31.43082 533 ft 195 kts 228°
2026-04-25 15:12 30.09692 31.41956 1554 ft 188 kts 234°
2026-04-25 15:12 30.09266 31.41126 2079 ft 183 kts 246°
2026-04-25 15:13 30.08970 31.39083 2447 ft 209 kts 276°
2026-04-25 15:13 30.10696 31.36116 3141 ft 256 kts 330°
2026-04-25 15:13 30.12520 31.35679 3602 ft 277 kts
2026-04-25 15:14 30.14340 31.36356 4332 ft 284 kts 26°
2026-04-25 15:14 30.16170 31.37244 5130 ft 283 kts
2026-04-25 15:14 30.18108 31.37254 5865 ft 282 kts 349°
2026-04-25 15:14 30.20058 31.36898 6726 ft 282 kts 347°
2026-04-25 15:15 30.21971 31.36523 7492 ft 284 kts 347°
2026-04-25 15:15 30.23932 31.36153 8247 ft 287 kts 347°
2026-04-25 15:15 30.25905 31.35789 9020 ft 289 kts 347°
2026-04-25 15:15 30.27904 31.35422 9730 ft 293 kts 347°
2026-04-25 15:16 30.29940 31.35048 10322 ft 303 kts 347°
2026-04-25 15:16 30.32086 31.34652 10735 ft 319 kts 347°
2026-04-25 15:16 30.36665 31.33810 11653 ft 348 kts 347°
2026-04-25 15:17 30.41679 31.32887 12635 ft 377 kts 347°
2026-04-25 15:17 30.44309 31.32402 13118 ft 391 kts 347°
2026-04-25 15:17 30.47024 31.31902 13707 ft 401 kts 347°
2026-04-25 15:18 30.49816 31.31389 14470 ft 407 kts 348°
2026-04-25 15:18 30.55462 31.30352 15956 ft 417 kts 348°
2026-04-25 15:18 30.58361 31.29819 16634 ft 424 kts 348°
2026-04-25 15:19 30.61284 31.29281 17323 ft 429 kts 348°
2026-04-25 15:19 30.63253 31.28918 17827 ft 431 kts 348°
2026-04-25 15:19 30.67208 31.28190 18817 ft 436 kts 347°
2026-04-25 15:19 30.70222 31.27634 19498 ft 442 kts 347°
2026-04-25 15:20 30.73274 31.27071 20196 ft 446 kts 347°
2026-04-25 15:20 30.76345 31.26503 20890 ft 450 kts 347°
2026-04-25 15:20 30.79461 31.25928 21650 ft 452 kts 347°
2026-04-25 15:20 30.82647 31.25339 22353 ft 456 kts 346°
2026-04-25 15:21 30.85780 31.24758 22970 ft 460 kts 346°
2026-04-25 15:21 30.89001 31.24162 23623 ft 464 kts 346°
2026-04-25 15:21 30.92215 31.23566 24256 ft 467 kts 346°
2026-04-25 15:21 30.95473 31.22962 24844 ft 471 kts 346°
2026-04-25 15:22 30.98714 31.22360 25341 ft 475 kts 346°
2026-04-25 15:22 31.02027 31.21744 25814 ft 480 kts 346°
2026-04-25 15:22 31.05363 31.21124 26318 ft 484 kts 346°
2026-04-25 15:22 31.08766 31.20491 26834 ft 487 kts 345°
2026-04-25 15:23 31.12144 31.19863 27351 ft 490 kts 345°
2026-04-25 15:23 31.15562 31.19226 27854 ft 493 kts 345°
2026-04-25 15:23 31.18997 31.18586 28300 ft 497 kts 344°
2026-04-25 15:23 31.22422 31.17947 28765 ft 500 kts 344°
2026-04-25 15:24 31.25926 31.17292 29218 ft 503 kts 344°
2026-04-25 15:24 31.29458 31.16633 29749 ft 505 kts 344°
2026-04-25 15:24 31.32922 31.15985 30309 ft 504 kts 344°
2026-04-25 15:24 31.35253 31.15549 30754 ft 502 kts 343°
2026-04-25 15:25 31.39844 31.14692 31667 ft 497 kts 344°
2026-04-25 15:25 31.43285 31.14049 32351 ft 493 kts 343°
2026-04-25 15:25 31.46709 31.13406 32899 ft 491 kts 343°
2026-04-25 15:25 31.50111 31.12767 33356 ft 490 kts 343°
2026-04-25 15:26 31.53477 31.12135 33818 ft 489 kts 344°
2026-04-25 15:26 31.56884 31.11684 34245 ft 491 kts 348°
2026-04-25 15:26 31.60305 31.11347 34654 ft 489 kts 348°
2026-04-25 15:26 31.63785 31.11002 34821 ft 493 kts 348°
2026-04-25 15:27 31.70607 31.10308 34841 ft 491 kts 347°
2026-04-25 15:28 31.80976 31.09220 34841 ft 493 kts 347°
2026-04-25 15:28 31.87827 31.08491 34831 ft 493 kts 347°
2026-04-25 15:29 31.94749 31.07750 34834 ft 493 kts 347°
2026-04-25 15:29 32.01647 31.07008 34834 ft 495 kts 348°
2026-04-25 15:30 32.08514 31.06262 34832 ft 493 kts 347°
2026-04-25 15:30 32.15358 31.05510 34832 ft 493 kts 347°
2026-04-25 15:31 32.22159 31.04762 34834 ft 492 kts 348°
2026-04-25 15:31 32.29039 31.04002 34835 ft 495 kts 348°
2026-04-25 15:32 32.35885 31.03247 34841 ft 494 kts 348°
2026-04-25 15:32 32.42786 31.02484 34846 ft 496 kts 348°
2026-04-25 15:33 32.53097 31.01343 34849 ft 495 kts 348°
2026-04-25 15:33 32.59947 31.00583 34850 ft 496 kts 348°
2026-04-25 15:34 32.66866 30.99814 34848 ft 496 kts 348°
2026-04-25 15:34 32.72601 30.99176 34853 ft 495 kts 348°
2026-04-25 15:35 32.84106 30.97892 34865 ft 499 kts 349°
2026-04-25 15:36 32.94441 30.96738 34868 ft 497 kts 349°
2026-04-25 15:36 32.99465 30.96175 34868 ft 497 kts 349°
2026-04-25 15:37 33.06401 30.95397 34880 ft 498 kts 349°
2026-04-25 15:37 33.13329 30.94743 34870 ft 500 kts 353°
2026-04-25 15:38 33.20335 30.94528 34872 ft 501 kts 353°
2026-04-25 15:38 33.27319 30.94301 34874 ft 502 kts 353°
2026-04-25 15:39 33.34270 30.94060 34879 ft 501 kts 353°
2026-04-25 15:39 33.41259 30.93807 34878 ft 501 kts 353°
2026-04-25 15:40 33.47092 30.93593 34879 ft 501 kts 353°
2026-04-25 15:40 33.55178 30.93291 34883 ft 502 kts 353°
2026-04-25 15:41 33.62154 30.93029 34890 ft 500 kts 353°
2026-04-25 15:41 33.69125 30.92765 34882 ft 500 kts 353°
2026-04-25 15:42 33.76098 30.92500 34884 ft 502 kts 353°
2026-04-25 15:42 33.83079 30.92236 34889 ft 501 kts 353°
2026-04-25 15:43 33.90057 30.91970 34891 ft 501 kts 354°
2026-04-25 15:43 33.97021 30.91696 34887 ft 499 kts 353°
2026-04-25 15:44 34.03985 30.91306 34888 ft 501 kts 353°
2026-04-25 15:44 34.10972 30.90911 34889 ft 499 kts 353°
2026-04-25 15:45 34.17918 30.90520 34892 ft 501 kts 353°
2026-04-25 15:45 34.23740 30.90194 34891 ft 500 kts 353°
2026-04-25 15:46 34.31864 30.89784 34898 ft 501 kts 354°
2026-04-25 15:46 34.38802 30.89447 34900 ft 501 kts 354°
2026-04-25 15:47 34.45792 30.89106 34901 ft 502 kts 354°
2026-04-25 15:47 34.52757 30.88764 34902 ft 500 kts 354°
2026-04-25 15:48 34.59705 30.88423 34899 ft 501 kts 354°
2026-04-25 15:48 34.66685 30.88139 34893 ft 501 kts 355°
2026-04-25 15:49 34.73647 30.87919 34903 ft 502 kts 355°
2026-04-25 15:49 34.80646 30.87694 34903 ft 500 kts 355°
2026-04-25 15:50 34.87603 30.87466 34907 ft 501 kts 355°
2026-04-25 15:50 34.94570 30.87237 34912 ft 501 kts 355°
2026-04-25 15:51 35.00374 30.87045 34924 ft 501 kts 355°
2026-04-25 15:51 35.08524 30.86774 34928 ft 501 kts 355°
2026-04-25 15:52 35.15494 30.86542 34927 ft 500 kts 355°
2026-04-25 15:52 35.22432 30.86311 34928 ft 501 kts 355°
2026-04-25 15:53 35.29434 30.86077 34927 ft 500 kts 356°
2026-04-25 15:53 35.36425 30.85842 34924 ft 501 kts 356°
2026-04-25 15:54 35.43343 30.85610 34926 ft 500 kts 356°
2026-04-25 15:54 35.50315 30.85376 34933 ft 500 kts 356°
2026-04-25 15:55 35.57294 30.85141 34930 ft 499 kts 356°
2026-04-25 15:55 35.64224 30.84877 34930 ft 498 kts 354°
2026-04-25 15:56 35.71252 30.84443 34934 ft 499 kts 354°
2026-04-25 15:56 35.78248 30.84010 34926 ft 499 kts 355°
2026-04-25 15:57 35.85246 30.83582 34931 ft 499 kts 355°
2026-04-25 15:57 35.92272 30.83155 34926 ft 498 kts 355°
2026-04-25 15:58 35.99217 30.82733 34937 ft 500 kts 355°
2026-04-25 15:58 36.06200 30.82331 34932 ft 498 kts 356°
2026-04-25 15:59 36.13189 30.82108 34949 ft 498 kts 356°
2026-04-25 15:59 36.20084 30.81891 34944 ft 497 kts 356°
2026-04-25 16:00 36.24719 30.81741 34955 ft 499 kts 356°
2026-04-25 16:00 36.34048 30.81435 34946 ft 497 kts 356°
2026-04-25 16:01 36.41002 30.81204 34955 ft 498 kts 357°
2026-04-25 16:01 36.47991 30.80966 34952 ft 497 kts 356°
2026-04-25 16:02 36.54942 30.80727 34954 ft 498 kts 357°
2026-04-25 16:02 36.61849 30.80489 34954 ft 497 kts 356°
2026-04-25 16:03 36.68781 30.80249 34958 ft 497 kts 356°
2026-04-25 16:03 36.75710 30.80009 34956 ft 495 kts 357°
2026-04-25 16:04 36.82603 30.79770 34957 ft 497 kts 357°
2026-04-25 16:04 36.89463 30.79531 34964 ft 496 kts 357°
2026-04-25 16:05 36.96397 30.79055 34969 ft 495 kts 353°
2026-04-25 16:06 37.06731 30.77686 34965 ft 494 kts 353°
2026-04-25 16:06 37.13576 30.76805 34979 ft 494 kts 353°
2026-04-25 16:07 37.20477 30.75928 34985 ft 494 kts 353°
2026-04-25 16:07 37.27314 30.75065 35001 ft 492 kts 353°
2026-04-25 16:08 37.34201 30.74198 35006 ft 493 kts 353°
2026-04-25 16:08 37.41016 30.73341 35011 ft 493 kts 353°
2026-04-25 16:09 37.47924 30.72369 35011 ft 493 kts 352°
2026-04-25 16:09 37.54697 30.71371 35030 ft 492 kts 352°
2026-04-25 16:10 37.61557 30.70404 35049 ft 492 kts 353°
2026-04-25 16:10 37.68372 30.69571 35067 ft 492 kts 353°
2026-04-25 16:11 37.75253 30.68726 35076 ft 492 kts 354°
2026-04-25 16:11 37.82055 30.67886 35079 ft 490 kts 354°
2026-04-25 16:12 37.88906 30.67037 35080 ft 492 kts 354°
2026-04-25 16:12 37.95689 30.66079 35079 ft 490 kts 353°
2026-04-25 16:13 38.02488 30.65122 35087 ft 490 kts 353°
2026-04-25 16:13 38.09276 30.64235 35087 ft 491 kts 353°
2026-04-25 16:14 38.16041 30.63349 35077 ft 491 kts 353°
2026-04-25 16:14 38.22856 30.62454 35082 ft 491 kts 353°
2026-04-25 16:15 38.29657 30.61558 35076 ft 489 kts 353°
2026-04-25 16:15 38.36403 30.60649 35071 ft 489 kts 353°
2026-04-25 16:16 38.43154 30.59737 35076 ft 489 kts 353°
2026-04-25 16:16 38.49923 30.58821 35074 ft 488 kts 353°
2026-04-25 16:17 38.56698 30.57903 35075 ft 488 kts 353°
2026-04-25 16:17 38.63450 30.56986 35082 ft 489 kts 353°
2026-04-25 16:18 38.70208 30.56067 35075 ft 489 kts 353°
2026-04-25 16:18 38.76978 30.55131 35074 ft 488 kts 351°
2026-04-25 16:19 38.83447 30.52686 35083 ft 486 kts 334°
2026-04-25 16:19 38.89485 30.48886 35081 ft 485 kts 333°
2026-04-25 16:20 38.98547 30.43086 34920 ft 479 kts 333°
2026-04-25 16:20 39.04533 30.39245 33207 ft 488 kts 333°
2026-04-25 16:21 39.07538 30.37314 32334 ft 491 kts 333°
2026-04-25 16:21 39.10602 30.35343 31495 ft 493 kts 333°
2026-04-25 16:21 39.13695 30.33352 30674 ft 494 kts 332°
2026-04-25 16:21 39.16755 30.31380 30186 ft 487 kts 332°
2026-04-25 16:22 39.19770 30.29435 29709 ft 481 kts 332°
2026-04-25 16:22 39.22729 30.27525 29197 ft 475 kts 332°
2026-04-25 16:22 39.25678 30.25619 28668 ft 470 kts 332°
2026-04-25 16:22 39.28599 30.23730 28132 ft 465 kts 332°
2026-04-25 16:23 39.31445 30.21887 27611 ft 460 kts 332°
2026-04-25 16:23 39.34330 30.20018 27074 ft 456 kts 332°
2026-04-25 16:23 39.37177 30.18172 26543 ft 451 kts 332°
2026-04-25 16:23 39.39956 30.16367 26025 ft 447 kts 332°
2026-04-25 16:24 39.42721 30.14570 25498 ft 443 kts 333°
2026-04-25 16:24 39.45488 30.12771 24969 ft 439 kts 333°
2026-04-25 16:24 39.48268 30.11059 24438 ft 446 kts 336°
2026-04-25 16:24 39.51129 30.09487 23896 ft 450 kts 338°
2026-04-25 16:25 39.54033 30.07898 23344 ft 447 kts 337°
2026-04-25 16:25 39.55938 30.06851 22981 ft 445 kts 338°
2026-04-25 16:25 39.59745 30.04750 22251 ft 439 kts 338°
2026-04-25 16:25 39.62559 30.03190 21711 ft 435 kts 337°
2026-04-25 16:26 39.65357 30.01635 21166 ft 431 kts 337°
2026-04-25 16:26 39.68132 30.00089 20625 ft 427 kts 337°
2026-04-25 16:26 39.70862 29.98565 20090 ft 423 kts 337°
2026-04-25 16:26 39.73548 29.97064 19557 ft 420 kts 337°
2026-04-25 16:27 39.76245 29.95555 19020 ft 416 kts 337°
2026-04-25 16:27 39.78944 29.94041 18476 ft 413 kts 337°
2026-04-25 16:27 39.81556 29.92574 17950 ft 410 kts 337°
2026-04-25 16:27 39.84219 29.91077 17414 ft 407 kts 336°
2026-04-25 16:28 39.86697 29.89343 16879 ft 404 kts 326°
2026-04-25 16:28 39.88897 29.87023 16345 ft 402 kts 315°
2026-04-25 16:28 39.90661 29.84245 16030 ft 394 kts 304°
2026-04-25 16:28 39.91981 29.81097 15703 ft 392 kts 293°
2026-04-25 16:29 39.92851 29.77719 15415 ft 390 kts 286°
2026-04-25 16:29 39.93565 29.74291 15146 ft 389 kts 285°
2026-04-25 16:29 39.94243 29.70883 14880 ft 387 kts 285°
2026-04-25 16:29 39.94895 29.67490 14620 ft 386 kts 284°
2026-04-25 16:30 39.95536 29.64083 14405 ft 384 kts 284°
2026-04-25 16:30 39.96172 29.60657 14145 ft 386 kts 284°
2026-04-25 16:30 39.96791 29.57275 13865 ft 383 kts 284°
2026-04-25 16:30 39.97407 29.53883 13593 ft 381 kts 284°
2026-04-25 16:31 39.98016 29.50507 13338 ft 380 kts 283°
2026-04-25 16:31 39.98618 29.47153 13100 ft 378 kts 283°
2026-04-25 16:31 39.99222 29.43768 12849 ft 377 kts 283°
2026-04-25 16:31 39.99811 29.40457 12612 ft 375 kts 283°
2026-04-25 16:32 40.00399 29.37145 12368 ft 374 kts 283°
2026-04-25 16:32 40.00993 29.33792 12116 ft 371 kts 282°
2026-04-25 16:32 40.01567 29.30544 11875 ft 370 kts 282°
2026-04-25 16:32 40.02238 29.27285 11630 ft 369 kts 290°
2026-04-25 16:33 40.03401 29.24265 11379 ft 368 kts 302°
2026-04-25 16:33 40.05030 29.21685 11124 ft 365 kts 315°
2026-04-25 16:33 40.07000 29.19689 10873 ft 356 kts 328°
2026-04-25 16:33 40.09204 29.18222 10647 ft 347 kts 334°
2026-04-25 16:34 40.11389 29.16913 10420 ft 338 kts 334°
2026-04-25 16:34 40.13529 29.15637 10188 ft 330 kts 334°
2026-04-25 16:34 40.15612 29.14393 9963 ft 322 kts 334°
2026-04-25 16:34 40.17654 29.13170 9614 ft 318 kts 334°
2026-04-25 16:35 40.19624 29.11989 9556 ft 305 kts 334°
2026-04-25 16:35 40.21504 29.10861 9533 ft 290 kts 334°
2026-04-25 16:35 40.23317 29.09773 9461 ft 278 kts 334°
2026-04-25 16:35 40.25067 29.08720 9134 ft 275 kts 334°
2026-04-25 16:36 40.26812 29.07669 8698 ft 275 kts 334°
2026-04-25 16:36 40.27414 29.07306 8530 ft 276 kts 334°
2026-04-25 16:36 40.30185 29.05265 7800 ft 272 kts 313°
2026-04-25 16:36 40.31354 29.03341 7384 ft 269 kts 303°
2026-04-25 16:37 40.32390 29.01281 6991 ft 268 kts 301°
2026-04-25 16:37 40.33389 28.99238 6727 ft 265 kts 301°
2026-04-25 16:37 40.34392 28.97182 6582 ft 267 kts 302°
2026-04-25 16:37 40.35397 28.95128 6465 ft 267 kts 302°
2026-04-25 16:38 40.36406 28.93068 6366 ft 267 kts 302°
2026-04-25 16:38 40.37419 28.90996 6267 ft 267 kts 301°
2026-04-25 16:38 40.38418 28.88952 6161 ft 266 kts 301°
2026-04-25 16:38 40.39434 28.86872 6044 ft 265 kts 302°
2026-04-25 16:39 40.40419 28.84852 5949 ft 264 kts 301°
2026-04-25 16:39 40.41425 28.82811 5836 ft 263 kts 304°
2026-04-25 16:39 40.42579 28.80914 5734 ft 263 kts 310°
2026-04-25 16:39 40.43783 28.79086 5625 ft 263 kts 310°
2026-04-25 16:40 40.44976 28.77272 5520 ft 263 kts 310°
2026-04-25 16:40 40.46173 28.75445 5420 ft 263 kts 310°
2026-04-25 16:40 40.47372 28.73611 5313 ft 262 kts 310°
2026-04-25 16:40 40.48547 28.71812 5197 ft 261 kts 310°
2026-04-25 16:41 40.49783 28.70081 5067 ft 261 kts 323°
2026-04-25 16:41 40.50849 28.69305 5000 ft 260 kts 339°
2026-04-25 16:41 40.54919 28.67787 4794 ft 258 kts 345°
2026-04-25 16:42 40.56661 28.67199 4680 ft 258 kts 345°
2026-04-25 16:42 40.58395 28.66610 4577 ft 258 kts 346°
2026-04-25 16:42 40.60138 28.66016 4492 ft 257 kts 346°
2026-04-25 16:42 40.61874 28.65424 4396 ft 256 kts 346°
2026-04-25 16:43 40.63609 28.64832 4279 ft 255 kts 346°
2026-04-25 16:43 40.65326 28.64246 4184 ft 255 kts 346°
2026-04-25 16:43 40.67023 28.63667 4077 ft 254 kts 346°
2026-04-25 16:43 40.68748 28.63077 3975 ft 253 kts 346°
2026-04-25 16:44 40.70447 28.62497 3881 ft 253 kts 346°
2026-04-25 16:44 40.72152 28.61913 3775 ft 253 kts 346°
2026-04-25 16:44 40.73843 28.61335 3679 ft 252 kts 346°
2026-04-25 16:44 40.75552 28.60749 3580 ft 251 kts 346°
2026-04-25 16:45 40.77248 28.60168 3474 ft 251 kts 346°
2026-04-25 16:45 40.78951 28.59584 3372 ft 251 kts 346°
2026-04-25 16:45 40.80628 28.59009 3276 ft 250 kts 346°
2026-04-25 16:45 40.82310 28.58432 3179 ft 250 kts 347°
2026-04-25 16:46 40.84000 28.58050 3050 ft 243 kts
2026-04-25 16:46 40.85558 28.58685 2995 ft 232 kts 33°
2026-04-25 16:46 40.86681 28.60094 2983 ft 211 kts 52°
2026-04-25 16:46 40.87255 28.61106 2984 ft 199 kts 55°
2026-04-25 16:47 40.88311 28.63229 2903 ft 222 kts 58°
2026-04-25 16:47 40.89135 28.64994 3006 ft 225 kts 59°
2026-04-25 16:47 40.89915 28.66672 2990 ft 201 kts 59°
2026-04-25 16:47 40.90587 28.68198 3001 ft 183 kts 59°
2026-04-25 16:48 40.91240 28.69619 3006 ft 177 kts 58°
2026-04-25 16:48 40.91881 28.70976 3007 ft 174 kts 58°
2026-04-25 16:48 40.92511 28.72327 3008 ft 173 kts 58°
2026-04-25 16:48 40.92906 28.73823 2985 ft 173 kts 89°
2026-04-25 16:49 40.92485 28.75288 2749 ft 174 kts 130°
2026-04-25 16:49 40.91421 28.75987 2615 ft 175 kts 174°
2026-04-25 16:49 40.90234 28.75521 2748 ft 183 kts 216°
2026-04-25 16:49 40.89400 28.74255 2918 ft 185 kts 232°
2026-04-25 16:50 40.88612 28.72884 3007 ft 186 kts 232°
2026-04-25 16:50 40.87825 28.71523 3012 ft 185 kts 232°
2026-04-25 16:50 40.87043 28.70173 3011 ft 185 kts 232°
2026-04-25 16:50 40.86260 28.68826 3009 ft 184 kts 232°
2026-04-25 16:51 40.85474 28.67478 3011 ft 184 kts 232°
2026-04-25 16:51 40.84690 28.66139 3012 ft 184 kts 232°
2026-04-25 16:51 40.83906 28.64805 3014 ft 184 kts 232°
2026-04-25 16:51 40.83386 28.63922 3007 ft 184 kts 232°
2026-04-25 16:52 40.82330 28.62132 3008 ft 184 kts 232°
2026-04-25 16:52 40.81759 28.60644 3005 ft 183 kts 263°
2026-04-25 16:52 40.82014 28.59031 2990 ft 181 kts 304°
2026-04-25 16:52 40.82990 28.58060 2984 ft 175 kts 346°
2026-04-25 16:53 40.85292 28.58747 3002 ft 172 kts 27°
2026-04-25 16:53 40.86327 28.59523 3001 ft 172 kts 39°
2026-04-25 16:53 40.87121 28.60726 3002 ft 173 kts 56°
2026-04-25 16:54 40.87752 28.62075 2998 ft 172 kts 59°
2026-04-25 16:54 40.88370 28.63433 3013 ft 173 kts 59°
2026-04-25 16:54 40.89004 28.64802 2872 ft 174 kts 58°
2026-04-25 16:54 40.89628 28.66139 2658 ft 171 kts 58°
2026-04-25 16:55 40.90247 28.67464 2437 ft 168 kts 58°
2026-04-25 16:55 40.90855 28.68767 2216 ft 167 kts 58°
2026-04-25 16:55 40.91466 28.70077 2000 ft 165 kts 58°
2026-04-25 16:55 40.92058 28.71343 1783 ft 155 kts 59°
2026-04-25 16:56 40.92598 28.72502 1587 ft 144 kts 59°
2026-04-25 16:56 40.93116 28.73612 1404 ft 140 kts 58°
2026-04-25 16:56 40.93624 28.74699 1223 ft 138 kts 58°
2026-04-25 16:56 40.94123 28.75771 1041 ft 137 kts 58°
2026-04-25 16:57 40.94627 28.76852 857 ft 136 kts 58°
2026-04-25 16:57 40.94959 28.77563 736 ft 136 kts 58°
2026-04-25 16:57 40.95622 28.78986 490 ft 137 kts 58°
2026-04-25 16:57 40.96127 28.80042 319 ft 136 kts 57°
2026-04-25 16:58 40.96633 28.81108 158 ft 136 kts 58°
2026-04-25 16:58 40.97116 28.82148 93 ft 124 kts 59°
2026-04-25 16:58 40.97382 28.82745 100 ft 31 kts 59°
2026-04-25 16:58 40.97504 28.82955 97 ft 20 kts 43°
2026-04-25 16:59 40.97565 28.83020 95 ft 10 kts 36°
2026-04-25 16:59 40.97628 28.83071 92 ft 11 kts 27°
2026-04-25 16:59 40.97714 28.83085 90 ft 10 kts 357°
2026-04-25 16:59 40.97776 28.83077 87 ft 8 kts 352°
2026-04-25 17:00 40.97786 28.83075 86 ft 0 kts 352°